Regional Weather Roundup
Issued by NWS

Home | Current Version | Previous Version | Graphics & Text | Print | Product List | Glossary On
Versions: 1 2 3 4 5 6 7 8 9 10 11 12 13 14 15 16 17 18 19 20 21 22 23 24 25 26 27 28 29 30 31 32 33 34 35 36 37 38 39 40 41 42 43 44 45 46 47 48 49 50
074
ASUS43 KFSD 190010
RWRSD

WEATHER ROUNDUP FOR SOUTH DAKOTA
NATIONAL WEATHER SERVICE SIOUX FALLS SD
700 PM CDT FRI AUG 18 2017

NOTE: "FAIR" INDICATES FEW OR NO CLOUDS BELOW 12,000 FEET WITH NO
SIGNIFICANT WEATHER AND/OR OBSTRUCTIONS TO VISIBILITY.


SDZ001>005-009-010-012>017-190100-
NORTHWEST AND NORTH CENTRAL SOUTH DAKOTA

CITY           SKY/WX    TMP DP  RH WIND       PRES   REMARKS
BUFFALO          N/A     86  43  22 N7        29.89S
FAITH            N/A     81  48  31 E13       29.96R
MOBRIDGE       SUNNY     80  59  48 CALM      29.91F
$$

SDZ012>016-024>037-041>051-057-063-072>074-190100-
SOUTHWEST AND SOUTH CENTRAL SOUTH DAKOTA

CITY           SKY/WX    TMP DP  RH WIND       PRES   REMARKS
RAPID CTY ARPT SUNNY     85  42  22 NW3       29.99S
PIERRE         SUNNY     82  50  32 N6        29.93F
CUSTER         SUNNY     75  45  34 E6        30.14S
ELLSWORTH AFB  SUNNY     85  43  23 E6        29.99S
PHILIP         SUNNY     87  43  21 E6        29.94S
PINE RIDGE     SUNNY     84  48  28 E9        30.00S
SPEARFISH      LGT RAIN  84  41  21 NE9       30.02S
WINNER         FAIR      83  54  36 N8        29.97S
$$

SDZ004>011-016>023-039-040-190100-
NORTHEAST SOUTH DAKOTA

CITY           SKY/WX    TMP DP  RH WIND       PRES   REMARKS
ABERDEEN       SUNNY     75  60  59 NE6       29.92R
WATERTOWN      MOSUNNY   67  60  78 N14       29.93R
BROOKINGS      CLOUDY    71  60  68 NW15      29.91R
SISSETON         N/A     73  62  68 NW3       29.91R
$$

SDZ017-020-022-023-036>040-048>070-190100-
SOUTHEAST SOUTH DAKOTA

CITY           SKY/WX    TMP DP  RH WIND       PRES   REMARKS
SIOUX FALLS    PTSUNNY   77  60  55 NW16G25   29.88R
HURON          SUNNY     74  59  59 N10       29.93R
CHAMBERLAIN    SUNNY     80  61  53 N6        29.96R
MITCHELL       SUNNY     75  60  59 NW12      29.94R
YANKTON        SUNNY     80  65  59 NW9       29.91R
$$

ABBREVIATIONS USED IN REMARKS
   TC - TEMPERATURE IN CELSIUS
  WCI - WIND CHILL INDEX
   HX - HEAT INDEX
  VSB - VISIBILITY





USA.gov is the U.S. government's official web portal to all federal, state and local government web resources and services.